Data No,UTC Date,UTC Time,Latitude,Longitude,Course(deg),Temp(degC),Sal(psu)
463,2024/1/3,7:42,35-35.70N,139-47.18E,205,13.33,
464,2024/1/3,7:43,35-35.56N,139-47.16E,183,13.217,
465,2024/1/3,7:44,35-35.43N,139-47.19E,168,13.248,
466,2024/1/3,7:45,35-35.30N,139-47.24E,156,13.198,
467,2024/1/3,7:46,35-35.18N,139-47.32E,153,13.24,
468,2024/1/3,7:47,35-35.05N,139-47.40E,150,13.256,
469,2024/1/3,7:48,35-34.96N,139-47.50E,136,13.083,
470,2024/1/3,7:49,35-34.86N,139-47.62E,135,13.181,
471,2024/1/3,7:50,35-34.77N,139-47.73E,134,13.029,
472,2024/1/3,7:51,35-34.68N,139-47.85E,134,12.933,
473,2024/1/3,7:52,35-34.58N,139-47.97E,135,12.936,
474,2024/1/3,7:53,35-34.47N,139-48.13E,126,12.927,
475,2024/1/3,7:54,35-34.37N,139-48.32E,123,12.974,
476,2024/1/3,7:55,35-34.27N,139-48.50E,122,12.888,
477,2024/1/3,7:56,35-34.16N,139-48.71E,124,12.835,
478,2024/1/3,7:57,35-34.05N,139-48.89E,125,12.85,
479,2024/1/3,7:58,35-33.93N,139-49.11E,125,12.919,
480,2024/1/3,7:59,35-33.78N,139-49.37E,125,12.851,
481,2024/1/3,8:00,35-33.64N,139-49.61E,125,12.77,
482,2024/1/3,8:01,35-33.49N,139-49.88E,123,12.576,
483,2024/1/3,8:02,35-33.35N,139-50.10E,129,12.483,
484,2024/1/3,8:03,35-33.15N,139-50.34E,135,12.707,
485,2024/1/3,8:04,35-32.93N,139-50.57E,143,12.655,
486,2024/1/3,8:05,35-32.66N,139-50.72E,158,12.517,
487,2024/1/3,8:06,35-32.39N,139-50.82E,164,12.591,
488,2024/1/3,8:07,35-32.10N,139-50.91E,164,12.717,
489,2024/1/3,8:08,35-31.82N,139-51.01E,165,12.746,
490,2024/1/3,8:09,35-31.51N,139-51.10E,165,12.742,
491,2024/1/3,8:10,35-31.21N,139-51.20E,164,12.64,
492,2024/1/3,8:11,35-30.92N,139-51.22E,186,12.604,
493,2024/1/3,8:12,35-30.62N,139-51.16E,191,12.6,
494,2024/1/3,8:13,35-30.31N,139-51.06E,194,12.585,
495,2024/1/3,8:14,35-30.02N,139-50.95E,199,12.543,
496,2024/1/3,8:15,35-29.73N,139-50.80E,209,12.524,
497,2024/1/3,8:16,35-29.48N,139-50.58E,216,12.518,
498,2024/1/3,8:17,35-29.21N,139-50.34E,216,12.513,
499,2024/1/3,8:18,35-28.95N,139-50.10E,217,12.604,
500,2024/1/3,8:19,35-28.73N,139-49.82E,230,12.423,
501,2024/1/3,8:20,35-28.53N,139-49.50E,231,12.465,
502,2024/1/3,8:21,35-28.32N,139-49.19E,231,12.558,
503,2024/1/3,8:22,35-28.11N,139-48.86E,231,12.655,
504,2024/1/3,8:23,35-27.90N,139-48.53E,231,12.711,
505,2024/1/3,8:24,35-27.70N,139-48.21E,232,12.725,
506,2024/1/3,8:25,35-27.43N,139-47.83E,232,12.771,
507,2024/1/3,8:26,35-27.22N,139-47.50E,232,12.782,
508,2024/1/3,8:27,35-27.01N,139-47.16E,232,12.84,
509,2024/1/3,8:28,35-26.78N,139-46.83E,232,12.809,
510,2024/1/3,8:29,35-26.61N,139-46.51E,232,12.828,
511,2024/1/3,8:30,35-26.38N,139-46.14E,232,12.837,
512,2024/1/3,8:31,35-26.16N,139-45.79E,232,12.802,
513,2024/1/3,8:32,35-25.95N,139-45.46E,232,12.83,
514,2024/1/3,8:33,35-25.74N,139-45.13E,233,12.809,
515,2024/1/3,8:34,35-25.53N,139-44.78E,233,12.813,
516,2024/1/3,8:35,35-25.31N,139-44.44E,232,12.745,
517,2024/1/3,8:36,35-25.10N,139-44.10E,233,12.676,
518,2024/1/3,8:37,35-24.92N,139-43.79E,233,12.67,
519,2024/1/3,8:38,35-24.72N,139-43.46E,232,12.689,
520,2024/1/3,8:39,35-24.47N,139-43.16E,216,12.734,
521,2024/1/3,8:40,35-24.18N,139-42.96E,209,12.733,
522,2024/1/3,8:41,35-23.88N,139-42.75E,208,12.781,
523,2024/1/3,8:42,35-23.57N,139-42.57E,205,12.857,
524,2024/1/3,8:43,35-23.25N,139-42.38E,205,12.829,
525,2024/1/3,8:44,35-22.89N,139-42.29E,186,12.799,
526,2024/1/3,8:45,35-22.60N,139-42.29E,180,12.808,
527,2024/1/3,8:46,35-22.27N,139-42.29E,180,12.824,
528,2024/1/3,8:47,35-21.94N,139-42.29E,180,12.878,
529,2024/1/3,8:48,35-21.61N,139-42.29E,180,12.939,
530,2024/1/3,8:49,35-21.31N,139-42.28E,180,12.994,
531,2024/1/3,8:50,35-20.98N,139-42.28E,180,13.02,
532,2024/1/3,8:51,35-20.63N,139-42.29E,176,13.048,
533,2024/1/3,8:52,35-20.33N,139-42.32E,175,13.061,
534,2024/1/3,8:53,35-20.07N,139-42.35E,175,13.178,
535,2024/1/3,8:54,35-19.85N,139-42.37E,175,13.388,
536,2024/1/3,8:55,35-19.68N,139-42.49E,144,13.32,
537,2024/1/3,8:56,35-19.54N,139-42.62E,142,13.388,
538,2024/1/3,8:57,35-19.38N,139-42.77E,143,13.441,
539,2024/1/3,8:58,35-19.22N,139-42.91E,143,13.528,
540,2024/1/3,8:59,35-19.05N,139-43.06E,144,13.758,
541,2024/1/3,9:00,35-18.87N,139-43.22E,144,13.923,
542,2024/1/3,9:01,35-18.71N,139-43.36E,144,13.893,
543,2024/1/3,9:02,35-18.54N,139-43.51E,144,13.719,
544,2024/1/3,9:03,35-18.36N,139-43.66E,144,13.663,
545,2024/1/3,9:04,35-18.20N,139-43.81E,142,13.776,
546,2024/1/3,9:05,35-18.03N,139-43.98E,141,13.884,
547,2024/1/3,9:06,35-17.87N,139-44.14E,142,14.08,
548,2024/1/3,9:07,35-17.70N,139-44.30E,142,14.402,
549,2024/1/3,9:08,35-17.53N,139-44.45E,142,14.384,
550,2024/1/3,9:09,35-17.36N,139-44.62E,142,14.307,
551,2024/1/3,9:10,35-17.19N,139-44.78E,141,14.161,
552,2024/1/3,9:11,35-17.02N,139-44.94E,142,14.098,
553,2024/1/3,9:12,35-16.84N,139-45.10E,143,14.098,
554,2024/1/3,9:13,35-16.68N,139-45.25E,144,14.095,
555,2024/1/3,9:14,35-16.50N,139-45.40E,145,14.074,
556,2024/1/3,9:15,35-16.32N,139-45.55E,145,14.013,
557,2024/1/3,9:16,35-16.15N,139-45.70E,144,14.031,
558,2024/1/3,9:17,35-15.97N,139-45.85E,144,14.024,
559,2024/1/3,9:18,35-15.80N,139-46.01E,145,13.978,
560,2024/1/3,9:19,35-15.60N,139-46.12E,160,13.912,
561,2024/1/3,9:20,35-15.39N,139-46.16E,174,13.809,
562,2024/1/3,9:21,35-15.18N,139-46.18E,177,14.034,
563,2024/1/3,9:22,35-14.96N,139-46.19E,178,14.029,
564,2024/1/3,9:23,35-14.76N,139-46.20E,177,14.294,
565,2024/1/3,9:24,35-14.56N,139-46.21E,178,14.454,
566,2024/1/3,9:25,35-14.33N,139-46.22E,178,14.179,
567,2024/1/3,9:26,35-14.13N,139-46.23E,177,14.188,
568,2024/1/3,9:27,35-13.91N,139-46.24E,177,14.174,
569,2024/1/3,9:28,35-13.68N,139-46.25E,177,14.118,
570,2024/1/3,9:29,35-13.48N,139-46.26E,177,14.621,
571,2024/1/3,9:30,35-13.23N,139-46.28E,175,16.941,
572,2024/1/3,9:31,35-13.02N,139-46.30E,175,18.017,
573,2024/1/3,9:32,35-12.83N,139-46.32E,175,18.412,
574,2024/1/3,9:33,35-12.59N,139-46.33E,180,18.628,
575,2024/1/3,9:34,35-12.39N,139-46.29E,192,18.66,
576,2024/1/3,9:35,35-12.13N,139-46.20E,195,18.662,
577,2024/1/3,9:36,35-11.88N,139-46.12E,194,18.66,
578,2024/1/3,9:37,35-11.60N,139-46.03E,194,18.726,
579,2024/1/3,9:38,35-11.33N,139-45.95E,195,18.768,
580,2024/1/3,9:39,35-11.06N,139-45.86E,195,18.802,
581,2024/1/3,9:40,35-10.79N,139-45.77E,194,18.843,
582,2024/1/3,9:41,35-10.53N,139-45.69E,194,18.884,
583,2024/1/3,9:42,35-10.25N,139-45.60E,195,18.903,
584,2024/1/3,9:43,35-09.98N,139-45.51E,195,18.921,
585,2024/1/3,9:44,35-09.72N,139-45.42E,195,18.931,
586,2024/1/3,9:45,35-09.44N,139-45.33E,194,18.94,
587,2024/1/3,9:46,35-09.17N,139-45.24E,194,18.954,
588,2024/1/3,9:47,35-08.90N,139-45.15E,194,18.959,
589,2024/1/3,9:48,35-08.63N,139-45.07E,195,18.966,
590,2024/1/3,9:49,35-08.36N,139-44.98E,195,18.971,
591,2024/1/3,9:50,35-08.04N,139-44.87E,195,18.985,
592,2024/1/3,9:51,35-07.81N,139-44.79E,195,19.005,
593,2024/1/3,9:52,35-07.49N,139-44.70E,193,19.009,
594,2024/1/3,9:53,35-07.26N,139-44.64E,192,19.021,
595,2024/1/3,9:54,35-06.98N,139-44.56E,192,19.021,
596,2024/1/3,9:55,35-06.70N,139-44.48E,192,19.047,
597,2024/1/3,9:56,35-06.43N,139-44.40E,193,19.064,
598,2024/1/3,9:57,35-06.14N,139-44.32E,193,19.059,
599,2024/1/3,9:58,35-05.87N,139-44.24E,192,19.035,
600,2024/1/3,9:59,35-05.56N,139-44.15E,194,19.014,
601,2024/1/3,10:00,35-05.27N,139-44.05E,196,19.006,
602,2024/1/3,10:01,35-05.01N,139-43.95E,196,18.972,
603,2024/1/3,10:02,35-04.73N,139-43.89E,190,18.964,
604,2024/1/3,10:03,35-04.46N,139-43.82E,190,18.96,
605,2024/1/3,10:04,35-04.19N,139-43.76E,191,18.971,
606,2024/1/3,10:05,35-03.92N,139-43.69E,191,18.994,
607,2024/1/3,10:06,35-03.68N,139-43.63E,191,19.048,
608,2024/1/3,10:07,35-03.40N,139-43.56E,191,19.088,
609,2024/1/3,10:08,35-03.13N,139-43.49E,191,19.05,
610,2024/1/3,10:09,35-02.86N,139-43.43E,190,18.985,
611,2024/1/3,10:10,35-02.59N,139-43.36E,192,18.979,
612,2024/1/3,10:11,35-02.31N,139-43.29E,192,19.066,
613,2024/1/3,10:12,35-02.05N,139-43.22E,192,19.273,
614,2024/1/3,10:13,35-01.77N,139-43.14E,193,19.365,
615,2024/1/3,10:14,35-01.49N,139-43.07E,192,19.38,
616,2024/1/3,10:15,35-01.23N,139-43.00E,192,19.379,
617,2024/1/3,10:16,35-00.97N,139-42.93E,192,19.38,
618,2024/1/3,10:17,35-00.70N,139-42.86E,192,19.227,
619,2024/1/3,10:18,35-00.43N,139-42.79E,192,19.327,
620,2024/1/3,10:19,35-00.17N,139-42.74E,189,19.098,
621,2024/1/3,10:20,34-59.90N,139-42.68E,190,18.801,
622,2024/1/3,10:21,34-59.63N,139-42.62E,191,18.78,
623,2024/1/3,10:22,34-59.37N,139-42.56E,191,18.762,
624,2024/1/3,10:23,34-59.10N,139-42.50E,190,18.778,
625,2024/1/3,10:24,34-58.83N,139-42.45E,189,18.811,
626,2024/1/3,10:25,34-58.57N,139-42.40E,188,18.88,
627,2024/1/3,10:26,34-58.30N,139-42.35E,187,18.943,
628,2024/1/3,10:27,34-58.04N,139-42.36E,173,18.975,
629,2024/1/3,10:28,34-57.77N,139-42.46E,156,19.026,
630,2024/1/3,10:29,34-57.54N,139-42.65E,142,19.098,
631,2024/1/3,10:30,34-57.31N,139-42.88E,140,19.204,
632,2024/1/3,10:31,34-57.07N,139-43.09E,144,19.299,
633,2024/1/3,10:32,34-56.82N,139-43.31E,144,19.379,
634,2024/1/3,10:33,34-56.57N,139-43.53E,144,19.506,
635,2024/1/3,10:34,34-56.32N,139-43.75E,143,19.636,
636,2024/1/3,10:35,34-56.07N,139-43.97E,143,19.799,
637,2024/1/3,10:36,34-55.83N,139-44.19E,144,19.98,
638,2024/1/3,10:37,34-55.57N,139-44.41E,144,20,
639,2024/1/3,10:38,34-55.32N,139-44.64E,143,20.026,
640,2024/1/3,10:39,34-55.07N,139-44.86E,143,20.081,
641,2024/1/3,10:40,34-54.81N,139-45.09E,144,20.157,
642,2024/1/3,10:41,34-54.52N,139-45.34E,144,20.203,
643,2024/1/3,10:42,34-54.25N,139-45.57E,145,20.09,
644,2024/1/3,10:43,34-54.03N,139-45.76E,145,20.056,
645,2024/1/3,10:44,34-53.76N,139-45.98E,145,20.073,
646,2024/1/3,10:45,34-53.50N,139-46.20E,145,20.029,
647,2024/1/3,10:46,34-53.24N,139-46.42E,145,19.964,
648,2024/1/3,10:47,34-52.97N,139-46.64E,146,19.927,
649,2024/1/3,10:48,34-52.69N,139-46.87E,146,19.855,
650,2024/1/3,10:49,34-52.40N,139-47.10E,145,19.904,
651,2024/1/3,10:50,34-52.13N,139-47.32E,145,19.886,
652,2024/1/3,10:51,34-51.88N,139-47.57E,137,19.688,
653,2024/1/3,10:52,34-51.66N,139-47.91E,123,19.619,
654,2024/1/3,10:53,34-51.51N,139-48.24E,119,19.704,
655,2024/1/3,10:54,34-51.35N,139-48.58E,119,19.684,
656,2024/1/3,10:55,34-51.19N,139-48.92E,118,19.553,
657,2024/1/3,10:56,34-51.04N,139-49.26E,118,19.361,
658,2024/1/3,10:57,34-50.89N,139-49.60E,117,19.262,
659,2024/1/3,10:58,34-50.74N,139-49.95E,116,19.122,
660,2024/1/3,10:59,34-50.61N,139-50.28E,115,19.055,
661,2024/1/3,11:00,34-50.48N,139-50.62E,116,19.082,
662,2024/1/3,11:01,34-50.34N,139-50.96E,116,19.195,
663,2024/1/3,11:02,34-50.22N,139-51.27E,115,19.259,
664,2024/1/3,11:03,34-50.08N,139-51.62E,115,19.276,
665,2024/1/3,11:04,34-49.95N,139-51.94E,116,19.28,
666,2024/1/3,11:05,34-49.83N,139-52.26E,115,19.323,
667,2024/1/3,11:06,34-49.70N,139-52.59E,115,19.355,
668,2024/1/3,11:07,34-49.57N,139-52.91E,115,19.386,
669,2024/1/3,11:08,34-49.45N,139-53.25E,110,19.386,
670,2024/1/3,11:09,34-49.43N,139-53.58E,87,19.377,
671,2024/1/3,11:10,34-49.52N,139-53.88E,64,19.372,
672,2024/1/3,11:11,34-49.65N,139-54.19E,63,19.345,
673,2024/1/3,11:12,34-49.78N,139-54.49E,60,19.062,
674,2024/1/3,11:13,34-49.93N,139-54.79E,58,18.729,
675,2024/1/3,11:14,34-50.09N,139-55.08E,58,18.718,
676,2024/1/3,11:15,34-50.23N,139-55.37E,59,18.697,
677,2024/1/3,11:16,34-50.37N,139-55.67E,59,18.678,
678,2024/1/3,11:17,34-50.51N,139-55.96E,59,18.67,
679,2024/1/3,11:18,34-50.66N,139-56.26E,59,18.71,
680,2024/1/3,11:19,34-50.81N,139-56.56E,59,18.758,
681,2024/1/3,11:20,34-50.95N,139-56.85E,59,18.806,
682,2024/1/3,11:21,34-51.09N,139-57.15E,60,18.867,
683,2024/1/3,11:22,34-51.23N,139-57.45E,59,18.934,
684,2024/1/3,11:23,34-51.37N,139-57.74E,60,18.993,
685,2024/1/3,11:24,34-51.51N,139-58.03E,60,18.977,
686,2024/1/3,11:25,34-51.65N,139-58.33E,60,18.921,
687,2024/1/3,11:26,34-51.79N,139-58.63E,59,18.945,
688,2024/1/3,11:27,34-51.94N,139-58.94E,59,19.053,
689,2024/1/3,11:28,34-52.08N,139-59.22E,59,19.113,
690,2024/1/3,11:29,34-52.22N,139-59.51E,59,19.122,
691,2024/1/3,11:30,34-52.36N,139-59.81E,59,19.17,
692,2024/1/3,11:31,34-52.51N,140-00.11E,59,19.222,
693,2024/1/3,11:32,34-52.65N,140-00.40E,59,19.282,
694,2024/1/3,11:33,34-52.80N,140-00.71E,59,19.366,
695,2024/1/3,11:34,34-52.94N,140-00.99E,58,19.39,
696,2024/1/3,11:35,34-53.09N,140-01.28E,59,19.407,
697,2024/1/3,11:36,34-53.24N,140-01.59E,59,19.43,
698,2024/1/3,11:37,34-53.38N,140-01.88E,58,19.41,
699,2024/1/3,11:38,34-53.53N,140-02.18E,58,19.38,
700,2024/1/3,11:39,34-53.68N,140-02.47E,58,19.337,
701,2024/1/3,11:40,34-53.84N,140-02.77E,57,19.281,
702,2024/1/3,11:41,34-54.00N,140-03.09E,57,19.239,
703,2024/1/3,11:42,34-54.15N,140-03.36E,57,19.228,
704,2024/1/3,11:43,34-54.31N,140-03.67E,57,19.23,
705,2024/1/3,11:44,34-54.47N,140-03.98E,57,19.212,
706,2024/1/3,11:45,34-54.62N,140-04.27E,57,19.194,
707,2024/1/3,11:46,34-54.78N,140-04.58E,57,19.184,
708,2024/1/3,11:47,34-54.94N,140-04.87E,57,19.173,
709,2024/1/3,11:48,34-55.10N,140-05.18E,57,19.194,
710,2024/1/3,11:49,34-55.27N,140-05.49E,56,19.209,
711,2024/1/3,11:50,34-55.43N,140-05.79E,56,19.212,
712,2024/1/3,11:51,34-55.60N,140-06.10E,56,19.199,
713,2024/1/3,11:52,34-55.76N,140-06.41E,56,19.213,
714,2024/1/3,11:53,34-55.93N,140-06.70E,57,19.221,
715,2024/1/3,11:54,34-56.09N,140-07.01E,57,19.254,
716,2024/1/3,11:55,34-56.25N,140-07.31E,56,19.278,
717,2024/1/3,11:56,34-56.42N,140-07.62E,56,19.334,
718,2024/1/3,11:57,34-56.59N,140-07.93E,55,19.476,
719,2024/1/3,11:58,34-56.76N,140-08.22E,55,19.841,
720,2024/1/3,11:59,34-56.94N,140-08.53E,55,19.961,
721,2024/1/3,12:00,34-57.12N,140-08.84E,55,20.104,
722,2024/1/3,12:01,34-57.29N,140-09.16E,56,20.2,
723,2024/1/3,12:02,34-57.47N,140-09.49E,58,20.409,
724,2024/1/3,12:03,34-57.63N,140-09.80E,58,20.594,
725,2024/1/3,12:04,34-57.79N,140-10.13E,58,20.719,
726,2024/1/3,12:05,34-57.95N,140-10.46E,58,20.744,
727,2024/1/3,12:06,34-58.12N,140-10.79E,58,20.79,
728,2024/1/3,12:07,34-58.28N,140-11.12E,59,20.783,
729,2024/1/3,12:08,34-58.45N,140-11.45E,59,20.788,
730,2024/1/3,12:09,34-58.61N,140-11.78E,59,20.766,
731,2024/1/3,12:10,34-58.77N,140-12.13E,60,20.733,
732,2024/1/3,12:11,34-58.93N,140-12.47E,60,20.709,
733,2024/1/3,12:12,34-59.09N,140-12.80E,60,20.692,
734,2024/1/3,12:13,34-59.25N,140-13.14E,60,20.715,
735,2024/1/3,12:14,34-59.41N,140-13.48E,60,20.742,
736,2024/1/3,12:15,34-59.57N,140-13.83E,61,20.718,
737,2024/1/3,12:16,34-59.72N,140-14.17E,61,20.712,
738,2024/1/3,12:17,34-59.87N,140-14.51E,61,20.619,
739,2024/1/3,12:18,35-00.03N,140-14.87E,62,20.639,
740,2024/1/3,12:19,35-00.18N,140-15.21E,62,20.577,
741,2024/1/3,12:20,35-00.33N,140-15.57E,62,20.407,
742,2024/1/3,12:21,35-00.48N,140-15.92E,63,20.305,
743,2024/1/3,12:22,35-00.63N,140-16.26E,63,20.324,
744,2024/1/3,12:23,35-00.78N,140-16.62E,63,20.287,
745,2024/1/3,12:24,35-00.92N,140-16.96E,63,20.219,
746,2024/1/3,12:25,35-01.09N,140-17.33E,63,20.107,
747,2024/1/3,12:26,35-01.25N,140-17.68E,61,19.217,
748,2024/1/3,12:27,35-01.38N,140-17.99E,62,18.48,
749,2024/1/3,12:28,35-01.52N,140-18.32E,62,18.367,
750,2024/1/3,12:29,35-01.67N,140-18.64E,62,18.338,
751,2024/1/3,12:30,35-01.80N,140-18.95E,62,18.378,
752,2024/1/3,12:31,35-01.92N,140-19.26E,61,18.399,
753,2024/1/3,12:32,35-02.06N,140-19.56E,61,18.407,
754,2024/1/3,12:33,35-02.20N,140-19.87E,61,18.408,
755,2024/1/3,12:34,35-02.34N,140-20.18E,61,18.413,
756,2024/1/3,12:35,35-02.48N,140-20.49E,60,18.415,
757,2024/1/3,12:36,35-02.63N,140-20.80E,60,18.418,
758,2024/1/3,12:37,35-02.77N,140-21.10E,60,18.432,
759,2024/1/3,12:38,35-02.91N,140-21.41E,61,18.421,
760,2024/1/3,12:39,35-03.06N,140-21.73E,60,18.422,
761,2024/1/3,12:40,35-03.20N,140-22.03E,60,18.416,
762,2024/1/3,12:41,35-03.35N,140-22.35E,61,18.424,
763,2024/1/3,12:42,35-03.49N,140-22.66E,60,18.429,
764,2024/1/3,12:43,35-03.63N,140-22.97E,61,18.435,
765,2024/1/3,12:44,35-03.77N,140-23.29E,61,18.439,
766,2024/1/3,12:45,35-03.92N,140-23.60E,61,18.453,
767,2024/1/3,12:46,35-04.06N,140-23.92E,61,18.454,
768,2024/1/3,12:47,35-04.21N,140-24.24E,61,18.45,
769,2024/1/3,12:48,35-04.35N,140-24.54E,61,18.45,
770,2024/1/3,12:49,35-04.50N,140-24.86E,60,18.457,
771,2024/1/3,12:50,35-04.64N,140-25.19E,61,18.461,
772,2024/1/3,12:51,35-04.79N,140-25.50E,60,18.46,
773,2024/1/3,12:52,35-04.93N,140-25.81E,61,18.459,
774,2024/1/3,12:53,35-05.07N,140-26.13E,61,18.462,
775,2024/1/3,12:54,35-05.22N,140-26.45E,60,18.456,
776,2024/1/3,12:55,35-05.37N,140-26.76E,60,18.46,
777,2024/1/3,12:56,35-05.52N,140-27.09E,60,18.459,
778,2024/1/3,12:57,35-05.68N,140-27.41E,60,18.459,
779,2024/1/3,12:58,35-05.85N,140-27.77E,60,18.464,
780,2024/1/3,12:59,35-05.99N,140-28.07E,60,18.456,
781,2024/1/3,13:00,35-06.14N,140-28.37E,59,18.46,
782,2024/1/3,13:01,35-06.29N,140-28.70E,59,18.453,
783,2024/1/3,13:02,35-06.44N,140-29.00E,59,18.464,
784,2024/1/3,13:03,35-06.60N,140-29.32E,59,18.453,
785,2024/1/3,13:04,35-06.75N,140-29.64E,59,18.448,
786,2024/1/3,13:05,35-06.91N,140-29.97E,59,18.446,
787,2024/1/3,13:06,35-07.06N,140-30.28E,59,18.448,
788,2024/1/3,13:07,35-07.22N,140-30.60E,59,18.45,
789,2024/1/3,13:08,35-07.37N,140-30.92E,59,18.443,
790,2024/1/3,13:09,35-07.53N,140-31.25E,59,18.457,
791,2024/1/3,13:10,35-07.68N,140-31.56E,59,18.451,
792,2024/1/3,13:11,35-07.84N,140-31.88E,59,18.449,
793,2024/1/3,13:12,35-07.99N,140-32.20E,59,18.448,
794,2024/1/3,13:13,35-08.18N,140-32.49E,45,18.448,
795,2024/1/3,13:14,35-08.42N,140-32.71E,36,18.453,
796,2024/1/3,13:15,35-08.65N,140-32.92E,36,18.455,
797,2024/1/3,13:16,35-08.89N,140-33.15E,37,18.453,
798,2024/1/3,13:17,35-09.14N,140-33.38E,37,18.457,
799,2024/1/3,13:18,35-09.37N,140-33.60E,37,18.435,
800,2024/1/3,13:19,35-09.66N,140-33.86E,37,18.409,
801,2024/1/3,13:20,35-09.91N,140-34.09E,37,18.387,
802,2024/1/3,13:21,35-10.15N,140-34.32E,37,18.336,
803,2024/1/3,13:22,35-10.39N,140-34.54E,36,18.183,
804,2024/1/3,13:23,35-10.64N,140-34.77E,37,18.02,
805,2024/1/3,13:24,35-10.89N,140-34.99E,34,17.83,
806,2024/1/3,13:25,35-11.11N,140-35.17E,34,17.636,
807,2024/1/3,13:26,35-11.35N,140-35.36E,33,17.501,
808,2024/1/3,13:27,35-11.60N,140-35.57E,33,17.471,
809,2024/1/3,13:28,35-11.86N,140-35.77E,33,17.58,
810,2024/1/3,13:29,35-12.10N,140-35.96E,32,17.627,
811,2024/1/3,13:30,35-12.34N,140-36.15E,32,17.652,
812,2024/1/3,13:31,35-12.60N,140-36.36E,33,17.639,
813,2024/1/3,13:32,35-12.83N,140-36.54E,32,17.662,
814,2024/1/3,13:33,35-13.09N,140-36.74E,33,17.646,
815,2024/1/3,13:34,35-13.34N,140-36.94E,33,17.638,
816,2024/1/3,13:35,35-13.58N,140-37.13E,33,17.562,
817,2024/1/3,13:36,35-13.83N,140-37.33E,32,17.41,
818,2024/1/3,13:37,35-14.08N,140-37.52E,32,17.283,
819,2024/1/3,13:38,35-14.32N,140-37.71E,32,17.224,
820,2024/1/3,13:39,35-14.58N,140-37.91E,33,17.176,
821,2024/1/3,13:40,35-14.81N,140-38.10E,33,17.177,
822,2024/1/3,13:41,35-15.06N,140-38.30E,33,17.207,
823,2024/1/3,13:42,35-15.31N,140-38.50E,33,17.228,
824,2024/1/3,13:43,35-15.55N,140-38.69E,33,17.244,
825,2024/1/3,13:44,35-15.80N,140-38.89E,32,17.24,
826,2024/1/3,13:45,35-16.05N,140-39.08E,32,17.228,
827,2024/1/3,13:46,35-16.29N,140-39.27E,33,17.249,
828,2024/1/3,13:47,35-16.54N,140-39.46E,31,17.239,
829,2024/1/3,13:48,35-16.78N,140-39.65E,32,17.236,
830,2024/1/3,13:49,35-17.03N,140-39.84E,33,17.226,
831,2024/1/3,13:50,35-17.27N,140-40.03E,31,17.257,
832,2024/1/3,13:51,35-17.51N,140-40.21E,31,17.448,
833,2024/1/3,13:52,35-17.75N,140-40.39E,32,17.525,
834,2024/1/3,13:53,35-17.99N,140-40.58E,32,17.543,
835,2024/1/3,13:54,35-18.24N,140-40.77E,32,17.549,
836,2024/1/3,13:55,35-18.46N,140-40.95E,32,17.53,
837,2024/1/3,13:56,35-18.70N,140-41.13E,31,17.533,
838,2024/1/3,13:57,35-18.94N,140-41.31E,32,17.547,
839,2024/1/3,13:58,35-19.18N,140-41.50E,32,17.543,
840,2024/1/3,13:59,35-19.42N,140-41.68E,32,17.572,
841,2024/1/3,14:00,35-19.65N,140-41.87E,34,17.588,
842,2024/1/3,14:01,35-19.88N,140-42.06E,34,17.614,
843,2024/1/3,14:02,35-20.11N,140-42.25E,34,17.632,
844,2024/1/3,14:03,35-20.34N,140-42.44E,33,17.644,
845,2024/1/3,14:04,35-20.57N,140-42.63E,33,17.652,
846,2024/1/3,14:05,35-20.80N,140-42.82E,34,17.638,
847,2024/1/3,14:06,35-21.03N,140-43.02E,34,17.63,
848,2024/1/3,14:07,35-21.27N,140-43.22E,34,17.638,
849,2024/1/3,14:08,35-21.50N,140-43.41E,34,17.647,
850,2024/1/3,14:09,35-21.74N,140-43.61E,34,17.655,
851,2024/1/3,14:10,35-21.95N,140-43.79E,34,17.678,
852,2024/1/3,14:11,35-22.18N,140-43.99E,34,17.68,
853,2024/1/3,14:12,35-22.42N,140-44.19E,34,17.697,
854,2024/1/3,14:13,35-22.64N,140-44.37E,34,17.714,
855,2024/1/3,14:14,35-22.88N,140-44.57E,34,17.726,
856,2024/1/3,14:15,35-23.11N,140-44.77E,34,17.725,
857,2024/1/3,14:16,35-23.34N,140-44.96E,35,17.744,
858,2024/1/3,14:17,35-23.57N,140-45.16E,34,17.747,
859,2024/1/3,14:18,35-23.80N,140-45.35E,35,17.758,
860,2024/1/3,14:19,35-24.04N,140-45.55E,34,17.767,
861,2024/1/3,14:20,35-24.27N,140-45.75E,34,17.764,
862,2024/1/3,14:21,35-24.49N,140-45.94E,34,17.777,
863,2024/1/3,14:22,35-24.73N,140-46.14E,34,17.78,
864,2024/1/3,14:23,35-24.96N,140-46.34E,35,17.778,
865,2024/1/3,14:24,35-25.19N,140-46.53E,34,17.768,
866,2024/1/3,14:25,35-25.42N,140-46.73E,35,17.77,
867,2024/1/3,14:26,35-25.65N,140-46.93E,35,17.761,
868,2024/1/3,14:27,35-25.88N,140-47.13E,35,17.756,
869,2024/1/3,14:28,35-26.12N,140-47.33E,34,17.76,
870,2024/1/3,14:29,35-26.34N,140-47.52E,35,17.76,
871,2024/1/3,14:30,35-26.57N,140-47.72E,34,17.762,
872,2024/1/3,14:31,35-26.80N,140-47.91E,34,17.762,
873,2024/1/3,14:32,35-27.04N,140-48.11E,34,17.773,
874,2024/1/3,14:33,35-27.27N,140-48.30E,34,17.776,
875,2024/1/3,14:34,35-27.50N,140-48.50E,34,17.778,
876,2024/1/3,14:35,35-27.73N,140-48.69E,34,17.783,
877,2024/1/3,14:36,35-27.97N,140-48.89E,35,17.761,
878,2024/1/3,14:37,35-28.20N,140-49.09E,34,17.728,
879,2024/1/3,14:38,35-28.43N,140-49.28E,34,17.7,
880,2024/1/3,14:39,35-28.66N,140-49.48E,34,17.657,
881,2024/1/3,14:40,35-28.89N,140-49.67E,34,17.633,
882,2024/1/3,14:41,35-29.13N,140-49.87E,34,17.584,
883,2024/1/3,14:42,35-29.37N,140-50.05E,32,17.558,
884,2024/1/3,14:43,35-29.60N,140-50.23E,31,17.669,
885,2024/1/3,14:44,35-29.85N,140-50.42E,32,17.727,
886,2024/1/3,14:45,35-30.07N,140-50.60E,33,17.753,
887,2024/1/3,14:46,35-30.31N,140-50.79E,33,17.767,
888,2024/1/3,14:47,35-30.55N,140-50.98E,33,17.743,
889,2024/1/3,14:48,35-30.81N,140-51.19E,34,17.66,
890,2024/1/3,14:49,35-31.05N,140-51.40E,35,17.59,
891,2024/1/3,14:50,35-31.23N,140-51.56E,35,17.608,
892,2024/1/3,14:51,35-31.45N,140-51.75E,35,17.687,
893,2024/1/3,14:52,35-31.70N,140-51.95E,34,17.817,
894,2024/1/3,14:53,35-31.91N,140-52.14E,34,17.874,
895,2024/1/3,14:54,35-32.17N,140-52.35E,34,17.901,
896,2024/1/3,14:55,35-32.39N,140-52.54E,34,17.961,
897,2024/1/3,14:56,35-32.62N,140-52.73E,34,18.024,
898,2024/1/3,14:57,35-32.83N,140-52.91E,34,18.079,
899,2024/1/3,14:58,35-33.04N,140-53.09E,34,18.133,
900,2024/1/3,14:59,35-33.27N,140-53.28E,35,18.197,
901,2024/1/3,15:00,35-33.51N,140-53.48E,34,18.261,
902,2024/1/3,15:01,35-33.73N,140-53.67E,34,18.311,
903,2024/1/3,15:02,35-33.96N,140-53.86E,34,18.326,
904,2024/1/3,15:03,35-34.20N,140-54.06E,35,18.336,
905,2024/1/3,15:04,35-34.42N,140-54.25E,34,18.326,
906,2024/1/3,15:05,35-34.65N,140-54.45E,34,18.316,
907,2024/1/3,15:06,35-34.89N,140-54.64E,35,18.286,
908,2024/1/3,15:07,35-35.12N,140-54.84E,34,18.271,
909,2024/1/3,15:08,35-35.35N,140-55.04E,35,18.274,
910,2024/1/3,15:09,35-35.58N,140-55.23E,34,18.284,
911,2024/1/3,15:10,35-35.81N,140-55.42E,35,18.279,
912,2024/1/3,15:11,35-36.04N,140-55.62E,34,18.277,
913,2024/1/3,15:12,35-36.27N,140-55.82E,35,18.261,
914,2024/1/3,15:13,35-36.50N,140-56.01E,35,18.249,
915,2024/1/3,15:14,35-36.75N,140-56.22E,34,18.241,
916,2024/1/3,15:15,35-36.97N,140-56.40E,34,18.242,
917,2024/1/3,15:16,35-37.20N,140-56.60E,34,18.234,
918,2024/1/3,15:17,35-37.44N,140-56.80E,34,18.249,
919,2024/1/3,15:18,35-37.67N,140-56.98E,33,18.304,
920,2024/1/3,15:19,35-37.91N,140-57.18E,34,18.334,
921,2024/1/3,15:20,35-38.15N,140-57.38E,34,18.345,